Main page
METAR-TAF:

METAR-TAF

Airports :

Colorado Plains Regional Airport

Akron, Colorado, United States

latitude: 40-10-28N, longitude: 103-12-52W, elevation: 4694 ft

Current weather observation

The report was made 57 minutes ago, at 15:53 UTC
Wind 7 mph from the East
Temperature 64°F
Humidity 59%
Pressure 30.27 in. Hg
Visibility: 10 miles
Few clouds at a height of 8000 ft

METAR: KAKO 281553Z AUTO 09006KT 10SM FEW080 18/10 A3027 RMK AO2 SLP203 T01830100

Time: 10:50 (16:50 UTC)


TAF: missing

Weather observations and forecasts of more than 4000 airports (METAR and TAF reports).

The available stations are represented by yellow and red dots on the map.

Hover mouse over dot to see the name of the station.

Then click to see weather observations and forecasts.

To change the map : click on the green buttons with a black cross to zoom in, on the green button with a dash to zoom out, or on the green arrows for adjacent maps.


METAR-TAF: